Total_Precipitation_Accumulation
0.44 0.44 0.40 0.35 0.32 0.31 0.32 0.35 0.37 0.37 0.38 0.42 0.45 0.46 0.46 0.46 0.44 0.45 0.45 0.48 0.51 0.54 0.55 0.60 0.61 0.59 0.61 0.64 0.68 0.71 0.74 0.77 0.66 0.53 0.43 0.41 0.41 0.46 0.42 0.32 0.24 0.20 0.16
0.60 0.65 0.71 0.68 0.61 0.52 0.40 0.36 0.40 0.44 0.44 0.45 0.47 0.48 0.47 0.49 0.55 0.59 0.58 0.62 0.64 0.63 0.61 0.61 0.57 0.51 0.52 0.51 0.55 0.57 0.60 0.66 0.57 0.46 0.42 0.40 0.43 0.48 0.48 0.40 0.31 0.24 0.22
0.85 1.00 1.11 1.08 0.90 0.67 0.48 0.40 0.42 0.46 0.48 0.50 0.54 0.60 0.63 0.64 0.63 0.67 0.70 0.71 0.65 0.60 0.58 0.54 0.50 0.47 0.45 0.42 0.42 0.39 0.38 0.44 0.45 0.43 0.45 0.45 0.44 0.41 0.41 0.42 0.39 0.37 0.29
0.70 0.88 1.02 1.08 0.89 0.66 0.51 0.44 0.38 0.36 0.38 0.43 0.51 0.61 0.70 0.75 0.78 0.73 0.65 0.62 0.56 0.52 0.48 0.44 0.44 0.44 0.42 0.39 0.39 0.33 0.29 0.33 0.39 0.38 0.40 0.42 0.42 0.39 0.39 0.43 0.45 0.48 0.39
0.38 0.55 0.70 0.80 0.65 0.44 0.32 0.27 0.23 0.27 0.35 0.44 0.52 0.59 0.71 0.78 0.76 0.72 0.61 0.56 0.53 0.45 0.39 0.36 0.37 0.35 0.35 0.36 0.33 0.28 0.23 0.23 0.23 0.26 0.28 0.28 0.29 0.30 0.31 0.34 0.43 0.54 0.50
0.30 0.36 0.47 0.51 0.42 0.28 0.15 0.10 0.12 0.19 0.25 0.31 0.35 0.41 0.45 0.49 0.51 0.47 0.41 0.37 0.35 0.31 0.29 0.28 0.27 0.25 0.29 0.30 0.26 0.23 0.19 0.15 0.13 0.16 0.17 0.20 0.22 0.23 0.24 0.32 0.44 0.50 0.58
0.33 0.33 0.37 0.41 0.34 0.22 0.09 0.07 0.09 0.13 0.16 0.19 0.20 0.22 0.24 0.26 0.23 0.19 0.19 0.19 0.20 0.20 0.19 0.19 0.17 0.18 0.22 0.23 0.20 0.15 0.14 0.12 0.10 0.13 0.13 0.12 0.13 0.16 0.19 0.29 0.45 0.61 0.71
0.28 0.28 0.36 0.41 0.36 0.26 0.18 0.15 0.14 0.15 0.16 0.17 0.17 0.16 0.17 0.18 0.14 0.11 0.10 0.09 0.10 0.12 0.13 0.13 0.14 0.14 0.16 0.16 0.13 0.10 0.09 0.09 0.10 0.10 0.09 0.08 0.07 0.09 0.13 0.17 0.25 0.40 0.59
0.25 0.29 0.33 0.38 0.38 0.31 0.28 0.27 0.25 0.23 0.21 0.20 0.19 0.17 0.17 0.18 0.13 0.09 0.06 0.07 0.09 0.09 0.10 0.11 0.10 0.10 0.13 0.11 0.08 0.08 0.08 0.07 0.07 0.07 0.05 0.04 0.03 0.02 0.03 0.04 0.04 0.07 0.16
0.25 0.28 0.31 0.38 0.42 0.37 0.35 0.35 0.32 0.33 0.29 0.26 0.23 0.23 0.24 0.26 0.22 0.13 0.08 0.07 0.09 0.10 0.11 0.12 0.12 0.10 0.09 0.07 0.07 0.07 0.06 0.04 0.04 0.04 0.02 0.01 0.01 0.01 0.00 0.01 0.02 0.02 0.04
0.22 0.25 0.32 0.43 0.47 0.46 0.48 0.49 0.44 0.39 0.39 0.39 0.36 0.34 0.34 0.36 0.32 0.19 0.11 0.12 0.10 0.09 0.11 0.14 0.13 0.10 0.07 0.06 0.06 0.06 0.05 0.02 0.02 0.02 0.01 0.01 0.00 0.00 0.00 0.00 0.01 0.03 0.06
0.23 0.28 0.39 0.45 0.39 0.38 0.50 0.57 0.55 0.52 0.50 0.50 0.48 0.45 0.42 0.43 0.37 0.24 0.15 0.16 0.15 0.11 0.11 0.12 0.12 0.09 0.05 0.04 0.04 0.04 0.02 0.01 0.01 0.01 0.01 0.00 0.00 0.00 0.00 0.00 0.01 0.02 0.04
0.29 0.34 0.40 0.42 0.46 0.51 0.54 0.56 0.59 0.60 0.57 0.53 0.52 0.52 0.51 0.53 0.47 0.31 0.22 0.21 0.20 0.17 0.12 0.12 0.10 0.07 0.04 0.03 0.03 0.02 0.02 0.01 0.01 0.01 0.01 0.00 0.00 0.00 0.00 0.00 0.00 0.01 0.03
0.33 0.34 0.37 0.42 0.46 0.55 0.64 0.66 0.63 0.62 0.62 0.61 0.58 0.53 0.52 0.57 0.55 0.38 0.26 0.26 0.23 0.19 0.13 0.09 0.07 0.05 0.03 0.02 0.01 0.01 0.01 0.01 0.01 0.01 0.00 0.00 0.00 0.00 0.00 0.00 0.00 0.00 0.01
0.42 0.38 0.37 0.39 0.45 0.57 0.65 0.72 0.70 0.68 0.57 0.57 0.57 0.52 0.48 0.53 0.58 0.46 0.33 0.29 0.26 0.19 0.11 0.06 0.04 0.03 0.02 0.01 0.01 0.00 0.00 0.00 0.00 0.00 0.00 0.00 0.00 0.00 0.00 0.00 0.00 0.00 0.00
0.54 0.51 0.47 0.46 0.51 0.56 0.64 0.63 0.57 0.55 0.46 0.43 0.42 0.40 0.39 0.43 0.53 0.47 0.36 0.32 0.28 0.19 0.09 0.05 0.03 0.02 0.01 0.01 0.00 0.00 0.00 0.00 0.00 0.00 0.00 0.00 0.00 0.00 0.00 0.00 0.00 0.00 0.00
0.65 0.65 0.62 0.55 0.55 0.59 0.64 0.67 0.64 0.55 0.50 0.44 0.35 0.30 0.30 0.35 0.41 0.39 0.31 0.28 0.22 0.14 0.06 0.03 0.02 0.01 0.01 0.00 0.00 0.00 0.00 0.00 0.00 0.00 0.00 0.00 0.00 0.00 0.00 0.00 0.00 0.00 0.00
0.70 0.69 0.66 0.62 0.57 0.60 0.65 0.65 0.69 0.70 0.63 0.53 0.42 0.31 0.26 0.26 0.28 0.29 0.25 0.22 0.16 0.09 0.04 0.02 0.01 0.00 0.00 0.00 0.00 0.00 0.00 0.00 0.00 0.00 0.00 0.00 0.00 0.00 0.00 0.00 0.00 0.00 0.00
0.69 0.68 0.65 0.65 0.62 0.60 0.66 0.67 0.66 0.70 0.68 0.63 0.52 0.38 0.29 0.23 0.21 0.23 0.19 0.15 0.09 0.04 0.02 0.01 0.00 0.00 0.00 0.00 0.00 0.00 0.00 0.00 0.00 0.00 0.00 0.00 0.00 0.00 0.00 0.00 0.00 0.00 0.00
0.69 0.62 0.60 0.62 0.61 0.61 0.64 0.66 0.63 0.66 0.65 0.63 0.52 0.37 0.29 0.22 0.18 0.16 0.12 0.09 0.05 0.02 0.01 0.00 0.00 0.00 0.00 0.00 0.00 0.00 0.00 0.00 0.00 0.00 0.00 0.00 0.00 0.00 0.00 0.00 0.00 0.00 0.00
0.73 0.64 0.54 0.53 0.54 0.58 0.63 0.64 0.62 0.61 0.59 0.57 0.44 0.28 0.20 0.13 0.10 0.07 0.05 0.05 0.03 0.01 0.00 0.00 0.00 0.00 0.00 0.00 0.00 0.00 0.00 0.00 0.00 0.00 0.00 0.00 0.00 0.00 0.00 0.00 0.00 0.00 0.00
0.78 0.70 0.57 0.48 0.48 0.54 0.60 0.62 0.60 0.55 0.53 0.50 0.39 0.23 0.15 0.10 0.06 0.04 0.02 0.02 0.01 0.00 0.00 0.00 0.00 0.00 0.00 0.00 0.00 0.00 0.00 0.00 0.00 0.00 0.00 0.00 0.00 0.00 0.00 0.00 0.00 0.00 0.00
0.71 0.66 0.56 0.42 0.42 0.47 0.52 0.56 0.56 0.49 0.47 0.43 0.32 0.20 0.13 0.09 0.05 0.03 0.01 0.01 0.01 0.00 0.00 0.00 0.00 0.00 0.00 0.00 0.00 0.00 0.00 0.00 0.00 0.00 0.00 0.00 0.00 0.00 0.00 0.00 0.00 0.00 0.00
0.58 0.56 0.53 0.40 0.37 0.45 0.48 0.53 0.52 0.42 0.38 0.32 0.22 0.14 0.09 0.07 0.04 0.02 0.01 0.01 0.00 0.00 0.00 0.00 0.00 0.00 0.00 0.00 0.00 0.00 0.00 0.00 0.00 0.00 0.00 0.00 0.00 0.00 0.00 0.00 0.00 0.00 0.00
0.52 0.48 0.50 0.42 0.36 0.41 0.46 0.50 0.47 0.37 0.30 0.22 0.14 0.09 0.07 0.05 0.03 0.02 0.01 0.00 0.00 0.00 0.00 0.00 0.00 0.00 0.00 0.00 0.00 0.00 0.00 0.00 0.00 0.00 0.00 0.00 0.00 0.00 0.00 0.00 0.00 0.00 0.00
0.50 0.48 0.50 0.46 0.38 0.39 0.44 0.44 0.40 0.31 0.22 0.14 0.09 0.07 0.05 0.03 0.03 0.02 0.01 0.00 0.00 0.00 0.00 0.00 0.00 0.00 0.00 0.00 0.00 0.00 0.00 0.00 0.00 0.00 0.00 0.00 0.00 0.00 0.00 0.00 0.00 0.00 0.00